This is the latest recevied weather packets stored in our database for station/object KC5DP. If no packets are shown the sender has not sent any weather packets the latest 10 day(s).
| Time | Temp. | Humidity | Pressure | Rain* | Wind** | Luminosity | Snow |
|---|---|---|---|---|---|---|---|
| 1778099779 | 28.89° C | 79% | 1010.1 hPa | 0 mm | - | 148 W/m² | - |
| 1778099475 | 28.89° C | 80% | 1010 hPa | 0 mm | - | 332 W/m² | - |
| 1778099174 | 28.89° C | 80% | 1010 hPa | 0 mm | - | 405 W/m² | - |
| 1778098869 | 28.89° C | 80% | 1010.1 hPa | 0 mm | - | 241 W/m² | - |
| 1778098567 | 28.33° C | 82% | 1010.4 hPa | 0 mm | - | 144 W/m² | - |
| 1778098263 | 28.33° C | 82% | 1010.4 hPa | 0 mm | - | 144 W/m² | - |
| 1778097960 | 28.89° C | 80% | 1010.5 hPa | 0 mm | - | 201 W/m² | - |
| 1778097656 | 28.89° C | 80% | 1010.6 hPa | 0 mm | - | 265 W/m² | - |
| 1778097353 | 29.44° C | 82% | 1010.6 hPa | 0 mm | - | 360 W/m² | - |
| 1778097050 | 29.44° C | 80% | 1010.6 hPa | 0 mm | - | 228 W/m² | - |
| 1778096748 | 29.44° C | 80% | 1010.7 hPa | 0 mm | - | 475 W/m² | - |
| 1778096443 | 28.89° C | 81% | 1011 hPa | 0 mm | - | 274 W/m² | - |
| 1778096141 | 28.89° C | 81% | 1011 hPa | 0 mm | - | 274 W/m² | - |
| 1778095838 | 28.33° C | 82% | 1011.2 hPa | 0 mm | - | 264 W/m² | - |
| 1778095535 | 28.33° C | 82% | 1011.3 hPa | 0 mm | - | 151 W/m² | - |
| 1778095231 | 28.33° C | 83% | 1011.3 hPa | 0 mm | - | 293 W/m² | - |
| 1778094928 | 28.33° C | 84% | 1011.5 hPa | 0 mm | - | 184 W/m² | - |
| 1778094624 | 28.33° C | 83% | 1011.7 hPa | 0 mm | - | 113 W/m² | - |
| 1778094321 | 28.89° C | 81% | 1011.4 hPa | 0 mm | - | 163 W/m² | - |
| 1778094018 | 28.89° C | 82% | 1011.4 hPa | 0 mm | - | 108 W/m² | - |
| 1778093715 | 29.44° C | 81% | 1011.6 hPa | 0 mm | - | 424 W/m² | - |
| 1778093412 | 29.44° C | 80% | 1011.7 hPa | 0 mm | - | 250 W/m² | - |
| 1778093109 | 29.44° C | 81% | 1011.7 hPa | 0 mm | - | 337 W/m² | - |
| 1778092806 | 28.89° C | 81% | 1011.9 hPa | 0 mm | - | 348 W/m² | - |
| 1778092502 | 28.89° C | 82% | 1012 hPa | 0 mm | - | 291 W/m² | - |
* Rain latest hour (hover to see other rain measurements)
** Current wind speed in m/s (hover to see current wind gust speed)